Voltar ao catálogo

STARLINK-32254

AtivoComunicaçõesVLEO
NORAD 60427·PAYLOAD·🇺🇸 United States

Lançado Aug 12, 2024 de Cape Canaveral Space Force Station

Loading…

Próximas Passagens (próximas 24 horas)

TLE

AtualizadoSource: CelesTrak SupGP

Época: Sep 15, 2026, 02:31 UTC

1 60427C 24144C   26258.10534722 -.00025230  00000+0 -74563-3 0  2580
2 60427  53.1579  54.5851 0001189  89.5019  70.5721 15.34394203    17

Acompanhe STARLINK-32254 em tempo real com AllMySat

Download on the App Store